N1LTP Weather Reports


time (UTC)temp
F
wind
direction
speed
knots
gust
knots
rain 1hr
in
rain 24hr
in
rain mn
in
humidity
%
barometer
mb
20260505003036 57 294 0.0 6.1 0.00 1.99 1.99 63 1009.9
20260505001522 57 101 0.0 3.5 0.00 1.99 1.99 61 1009.5
20260505000024 58 235 0.9 3.5 0.00 1.99 1.99 59 1009.2
20260504234519 59 96 0.9 3.5 0.00 1.99 1.99 57 1009.0
20260504233018 59 238 0.9 4.3 0.00 1.99 1.99 57 1008.8
20260504231519 60 144 1.7 6.1 0.00 1.99 1.99 54 1008.6
20260504230017 62 150 1.7 4.3 0.00 1.99 1.99 52 1008.3
20260504224518 63 241 0.9 7.0 0.00 1.99 1.99 51 1008.2
20260504223017 64 234 0.9 3.5 0.00 1.99 1.99 49 1008.0
20260504221515 64 206 1.7 5.2 0.00 1.99 1.99 48 1007.8
20260504220015 65 284 0.9 6.1 0.00 1.99 1.99 47 1007.7
20260504214517 66 192 0.9 7.8 0.00 1.99 1.99 47 1007.8
20260504213022 67 259 2.6 7.8 0.00 1.99 1.99 45 1007.5
20260504211528 67 254 1.7 9.6 0.00 1.99 1.99 44 1007.6
20260504210011 67 167 1.7 7.0 0.00 1.99 1.99 43 1007.4
20260504204510 68 213 0.9 8.7 0.00 1.99 1.99 41 1007.5
20260504203010 69 207 1.7 8.7 0.05 1.99 1.99 38 1007.5
20260504201508 69 198 1.7 7.0 0.05 1.99 1.99 38 1007.4
20260504200007 70 334 2.6 7.8 1.11 1.99 1.99 38 1007.4
20260504194506 70 182 0.9 6.1 1.99 1.99 1.99 34 1007.5
20260504193006 70 269 2.6 7.8 1.94 1.94 1.94 35 1007.5
20260504191504 69 271 2.6 9.6 1.94 1.94 1.94 35 1007.5
20260504190002 70 323 2.6 7.0 0.83 0.83 0.83 33 1007.6
20260504184603 70 229 2.6 11.3 0.00 0.00 0.00 32 1007.8
20260504183058 70 190 1.7 11.3 0.00 0.00 0.00 34 1007.8
20260504181603 70 291 4.3 9.6 0.00 0.00 0.00 34 1008.0
20260504180057 69 290 4.3 12.2 0.00 0.00 0.00 34 1008.1
20260504174556 70 63 1.7 8.7 0.00 0.00 0.00 33 1008.1
20260504173056 69 293 2.6 9.6 0.00 0.00 0.00 34 1008.0
20260504171552 69 242 1.7 7.0 0.00 0.00 0.00 33 1008.1
20260504081509 41 315 0.0 0.0 0.00 0.00 0.00 81 1010.6
20260504044546 36 315 0.0 0.0 0.00 0.00 0.00 83 1010.6
20260504043047 36 315 0.0 0.9 0.00 0.00 0.00 83 1010.5
20260504041543 36 315 0.0 0.0 0.00 0.00 0.00 82 1010.4
20260504040041 36 315 0.0 0.0 0.00 0.00 0.00 82 1010.2
20260504034539 36 315 0.0 0.0 0.00 0.00 0.00 81 1010.2
20260504033037 37 315 0.0 0.0 0.00 0.00 0.00 82 1010.0
20260504031550 37 315 0.0 0.0 0.00 0.00 0.00 79 1010.0
20260504030035 38 315 0.0 0.0 0.00 0.00 0.00 78 1009.9
20260504024532 38 315 0.0 0.0 0.00 0.00 0.00 75 1009.9
20260504023030 39 315 0.0 0.0 0.00 0.00 0.00 74 1009.8
20260504021528 40 315 0.0 0.0 0.00 0.00 0.00 73 1009.8
20260504020025 41 315 0.0 0.0 0.00 0.00 0.00 70 1009.8
20260504014525 42 315 0.0 0.0 0.00 0.00 0.00 67 1009.7
20260504013016 43 315 0.0 0.0 0.00 0.00 0.00 66 1009.5
20260504011515 44 315 0.0 0.0 0.00 0.00 0.00 64 1009.3
20260504010015 45 315 0.0 0.0 0.00 0.00 0.00 60 1009.1
20260504004519 47 315 0.0 0.0 0.00 0.00 0.00 55 1008.9